Temp
83 84 83 83 84 84 84 84 84 83 84 83 83 84 84 83 84 84 84 83 83 84 84 84 84 84 84 84 84 84 84 84 84 83 83 83 83 83 84 85 86 85 83
88 86 83 83 84 84 84 83 83 83 83 83 83 83 83 83 83 83 83 84 84 84 84 84 84 84 84 84 84 84 84 84 84 84 84 84 84 83 84 84 84 83 83
89 86 86 84 83 84 84 83 83 83 83 83 83 83 83 83 83 83 84 84 84 84 84 84 84 84 84 84 84 84 84 84 83 83 84 85 84 84 84 84 83 83 82
90 88 86 82 83 83 83 83 83 83 83 83 83 83 83 84 83 83 84 84 84 84 84 84 84 84 84 84 83 84 83 83 83 84 75 77 85 84 83 83 83 83 82
89 88 84 84 83 84 83 83 83 83 83 83 84 84 84 84 83 84 84 84 84 84 84 84 84 84 84 83 83 83 83 84 84 84 74 74 79 84 83 83 83 83 83
90 87 84 83 84 83 83 83 83 84 84 84 84 84 84 84 84 84 84 84 84 84 84 84 85 84 84 83 82 82 83 83 84 84 79 81 81 83 84 84 83 83 82
88 86 85 83 84 83 83 83 83 83 83 84 84 84 84 84 84 84 84 84 84 84 84 84 84 83 84 83 82 82 82 83 86 83 77 81 81 83 83 83 83 82 82
91 87 86 83 83 83 83 83 84 84 84 84 84 84 84 84 84 84 84 84 84 84 84 83 83 82 82 83 83 82 83 83 88 84 83 81 81 82 83 83 82 82 82
93 89 86 85 84 84 84 83 84 84 84 84 84 84 84 84 85 85 84 84 84 85 84 82 82 82 83 83 83 82 82 84 86 86 86 80 81 83 83 82 82 82 82
93 91 88 85 86 86 84 83 84 84 84 84 84 84 85 85 85 85 84 84 85 86 85 84 84 83 83 83 82 82 83 84 87 85 81 80 82 83 83 83 83 82 82
93 92 91 89 86 86 85 85 84 84 84 85 85 85 85 85 86 86 86 86 86 86 85 85 84 83 82 82 83 83 83 83 87 85 81 80 82 83 83 83 83 82 82
91 93 93 92 90 88 92 83 85 86 85 84 79 81 85 87 83 91 87 85 86 85 85 84 84 83 84 84 82 83 84 87 86 83 79 80 82 83 83 82 82 81 81
92 93 94 94 87 90 86 88 85 82 88 88 82 83 86 89 88 88 85 80 71 82 78 84 83 83 84 80 85 85 86 89 88 84 80 81 82 83 82 81 81 81 80
93 94 96 92 85 88 85 87 90 84 89 86 74 75 81 78 76 75 76 75 73 76 73 74 80 82 82 83 84 79 84 88 86 83 80 81 82 82 82 81 81 80 80
92 93 92 89 79 85 82 82 84 86 89 88 76 76 81 81 82 79 79 79 77 75 74 75 76 76 78 86 84 85 89 89 88 84 80 82 81 81 82 81 81 80 80
92 92 91 90 89 88 88 90 82 88 91 87 88 89 89 80 82 83 83 84 84 82 79 83 78 76 78 82 88 88 86 86 88 86 84 82 81 81 81 81 81 80 80
93 93 89 89 91 87 90 89 88 90 94 89 89 90 89 87 84 86 88 87 87 87 88 87 88 84 84 88 88 85 85 89 86 87 83 81 80 81 81 81 80 80 80
93 88 89 93 89 88 87 87 88 89 92 91 91 89 91 90 85 86 88 87 89 87 86 86 86 87 85 87 85 85 87 88 88 85 85 82 81 82 80 80 80 80 80
91 88 88 87 90 89 88 87 89 93 89 93 92 90 89 93 91 86 88 89 87 86 84 86 87 86 85 85 88 88 87 85 85 89 83 84 81 82 81 80 79 79 80
91 89 88 89 87 86 88 88 91 91 90 93 89 90 88 91 91 87 89 89 88 85 83 84 83 86 86 84 94 89 87 87 86 85 87 87 85 82 82 79 77 79 80
91 88 88 87 86 86 87 86 85 88 90 90 90 89 92 93 93 88 88 84 86 83 83 85 84 83 83 84 83 83 83 88 87 87 87 86 86 86 81 79 78 79 78
89 87 87 87 86 87 87 86 88 87 91 91 89 90 91 93 86 90 86 86 85 85 84 83 82 81 82 82 79 79 76 80 83 86 83 85 83 83 84 84 82 79 78
88 87 86 86 85 86 88 88 86 86 89 87 87 87 90 92 90 89 89 87 85 83 83 83 81 80 78 79 82 77 73 72 76 79 81 79 80 78 79 79 81 81 80
90 90 87 86 84 86 87 87 85 85 85 88 87 88 88 90 93 91 88 89 85 86 83 82 82 79 79 77 79 80 78 76 71 72 77 77 77 79 78 78 79 79 80
92 90 88 85 85 85 86 88 87 86 88 89 88 86 85 88 91 92 90 89 84 85 83 83 81 79 80 78 78 78 77 77 76 73 71 73 76 78 78 78 78 78 79
95 91 89 84 84 85 85 86 85 84 84 87 85 85 86 87 88 91 90 89 86 85 84 82 82 80 78 77 77 77 76 75 74 73 71 72 73 76 78 78 77 77 79
MSLP
1011.71 1012.28 1012.62 1012.80 1012.92 1013.02 1013.12 1013.32 1013.43 1013.60 1013.73 1013.90 1013.97 1014.02 1014.18 1014.33 1014.40 1014.51 1014.69 1014.83 1014.81 1014.80 1014.85 1014.86 1014.98 1015.06 1015.11 1015.11 1015.10 1015.06 1015.03 1015.11 1015.21 1015.37 1015.56 1015.68 1015.70 1015.65 1015.61 1015.60 1015.69 1016.34 1016.75
1011.47 1012.15 1012.72 1012.94 1013.02 1013.24 1013.41 1013.57 1013.69 1013.81 1013.88 1014.01 1014.13 1014.25 1014.39 1014.54 1014.73 1014.94 1015.10 1015.10 1015.12 1015.12 1015.17 1015.24 1015.29 1015.35 1015.33 1015.29 1015.25 1015.16 1015.17 1015.37 1015.76 1016.13 1016.40 1016.49 1016.42 1016.22 1015.99 1015.95 1016.24 1016.64 1016.89
1011.28 1012.27 1012.69 1013.05 1013.32 1013.42 1013.63 1013.78 1013.90 1013.96 1014.12 1014.28 1014.39 1014.49 1014.61 1014.76 1015.05 1015.14 1015.09 1015.25 1015.32 1015.36 1015.46 1015.48 1015.54 1015.50 1015.44 1015.40 1015.35 1015.34 1015.52 1015.93 1016.38 1016.77 1016.48 1016.41 1016.65 1016.77 1016.63 1016.45 1016.77 1017.08 1017.26
1011.12 1011.84 1012.71 1013.31 1013.48 1013.61 1013.79 1013.87 1014.03 1014.16 1014.35 1014.50 1014.64 1014.82 1014.84 1014.91 1015.08 1015.22 1015.24 1015.29 1015.38 1015.46 1015.49 1015.53 1015.57 1015.63 1015.62 1015.58 1015.49 1015.52 1015.73 1016.45 1016.62 1016.57 1017.42 1017.21 1016.90 1017.13 1017.18 1016.94 1017.09 1017.29 1017.37
1011.24 1012.15 1013.03 1013.33 1013.65 1013.78 1013.89 1014.08 1014.23 1014.46 1014.64 1014.74 1014.87 1014.94 1014.97 1015.04 1015.29 1015.21 1015.30 1015.39 1015.44 1015.53 1015.49 1015.50 1015.59 1015.64 1015.75 1015.74 1015.66 1015.68 1015.90 1016.64 1016.46 1016.91 1017.51 1016.20 1017.50 1017.58 1017.58 1017.27 1017.33 1017.46 1017.55
1011.29 1012.41 1013.23 1013.52 1013.71 1013.86 1014.06 1014.25 1014.43 1014.53 1014.69 1014.87 1014.99 1015.03 1015.09 1015.20 1015.28 1015.30 1015.37 1015.42 1015.41 1015.39 1015.38 1015.43 1015.55 1015.65 1015.86 1015.89 1015.83 1015.87 1016.12 1016.72 1016.80 1017.03 1017.43 1017.51 1017.59 1017.87 1017.63 1017.37 1017.34 1017.54 1017.73
1011.72 1012.57 1013.23 1013.61 1013.85 1014.06 1014.28 1014.42 1014.53 1014.63 1014.76 1014.88 1014.90 1014.99 1015.14 1015.30 1015.32 1015.30 1015.25 1015.25 1015.23 1015.26 1015.41 1015.48 1015.63 1015.83 1015.90 1015.90 1015.89 1015.98 1016.35 1016.79 1016.94 1017.00 1017.48 1017.45 1017.95 1018.22 1017.80 1017.66 1017.62 1017.76 1017.98
1011.43 1012.56 1013.19 1013.77 1014.03 1014.25 1014.34 1014.48 1014.63 1014.66 1014.69 1014.76 1014.71 1014.89 1015.01 1015.02 1015.06 1015.03 1015.07 1015.07 1015.28 1015.38 1015.56 1015.73 1015.86 1015.92 1015.92 1015.97 1015.90 1015.98 1016.18 1016.72 1016.85 1017.01 1017.44 1018.05 1018.25 1018.04 1017.83 1017.78 1017.80 1017.97 1018.19
1011.39 1012.51 1013.20 1013.72 1014.07 1014.34 1014.40 1014.59 1014.73 1014.63 1014.58 1014.62 1014.51 1014.69 1014.71 1014.66 1014.77 1015.03 1015.36 1015.47 1015.61 1015.53 1015.61 1015.77 1015.88 1015.99 1016.04 1015.95 1016.06 1016.18 1016.10 1016.25 1016.53 1016.76 1017.33 1018.09 1018.14 1018.00 1017.88 1017.83 1017.91 1018.04 1018.33
1011.36 1012.06 1012.69 1013.48 1013.69 1014.02 1014.50 1014.64 1014.59 1014.35 1014.32 1014.24 1014.27 1014.35 1014.54 1014.80 1015.11 1015.43 1015.88 1016.14 1016.19 1016.10 1016.01 1015.97 1015.89 1015.98 1016.27 1016.35 1016.27 1016.25 1016.25 1016.18 1016.08 1016.71 1017.48 1017.92 1017.96 1017.81 1017.81 1017.88 1018.05 1018.30 1018.49
1011.08 1011.69 1012.38 1012.96 1013.34 1013.71 1014.23 1014.40 1014.34 1014.09 1014.46 1015.23 1014.98 1014.51 1014.66 1015.04 1015.35 1015.70 1015.76 1015.88 1016.21 1016.42 1016.29 1016.53 1016.51 1016.34 1016.33 1016.50 1016.55 1016.63 1016.56 1016.29 1016.01 1016.70 1017.38 1017.78 1017.81 1017.90 1018.06 1018.33 1018.43 1018.52 1018.63
1011.09 1011.40 1012.16 1012.61 1012.84 1013.33 1013.41 1014.00 1013.93 1013.94 1015.07 1014.57 1015.45 1014.91 1014.59 1014.76 1014.87 1014.57 1014.87 1015.48 1015.92 1016.31 1016.87 1016.81 1017.10 1017.13 1016.80 1016.74 1016.67 1016.65 1016.32 1015.94 1016.47 1017.20 1017.94 1018.12 1018.22 1018.30 1018.59 1018.66 1018.71 1018.82 1018.81
1011.09 1011.33 1011.91 1012.26 1012.84 1013.14 1013.44 1013.50 1013.98 1013.72 1013.74 1014.98 1015.11 1014.61 1013.82 1014.21 1014.39 1014.42 1014.52 1015.93 1015.74 1016.85 1017.05 1017.09 1017.22 1017.18 1016.01 1016.55 1016.50 1016.47 1016.02 1016.05 1016.54 1017.31 1018.15 1018.34 1018.53 1018.75 1018.90 1019.07 1019.13 1019.15 1019.15
1010.84 1011.07 1011.63 1012.49 1013.10 1013.11 1013.40 1013.71 1013.63 1013.52 1013.76 1013.70 1015.02 1014.59 1014.88 1014.61 1014.65 1015.98 1014.19 1014.31 1014.77 1016.09 1016.06 1016.88 1016.66 1016.55 1016.39 1016.17 1016.87 1016.70 1016.18 1016.19 1016.79 1017.47 1017.96 1018.17 1018.51 1018.81 1019.08 1019.35 1019.45 1019.50 1019.60
1010.78 1011.19 1011.84 1012.76 1013.05 1013.41 1013.65 1013.76 1014.14 1013.78 1014.12 1014.20 1014.82 1014.78 1014.97 1015.00 1015.05 1015.55 1014.32 1013.65 1014.85 1016.36 1017.04 1017.11 1016.68 1015.75 1015.51 1015.78 1015.87 1016.10 1015.95 1016.00 1016.68 1017.45 1018.01 1018.12 1018.44 1018.77 1019.02 1019.22 1019.49 1019.69 1019.83
1010.79 1011.41 1012.23 1012.77 1012.95 1013.02 1013.56 1013.54 1014.19 1013.67 1013.47 1013.90 1014.34 1014.58 1014.50 1014.74 1014.75 1014.93 1015.27 1015.45 1015.14 1015.60 1016.66 1015.65 1015.78 1015.84 1016.60 1015.98 1015.63 1016.12 1016.23 1016.12 1016.43 1017.26 1018.14 1018.70 1018.95 1019.05 1019.09 1019.22 1019.45 1019.77 1019.96
1010.69 1011.39 1012.42 1012.84 1013.12 1013.38 1013.43 1013.53 1013.47 1013.57 1013.45 1014.22 1014.55 1014.48 1014.50 1014.36 1015.02 1014.82 1014.81 1015.31 1015.26 1015.24 1015.08 1014.91 1014.67 1015.39 1015.95 1015.41 1015.45 1015.91 1016.19 1015.86 1016.30 1016.89 1017.61 1018.48 1018.75 1019.10 1019.29 1019.43 1019.55 1019.61 1019.84
1010.59 1011.52 1012.41 1012.47 1013.11 1013.50 1013.59 1013.60 1013.51 1013.21 1013.14 1013.75 1014.26 1014.47 1014.60 1014.53 1014.28 1014.24 1014.87 1015.31 1015.09 1014.99 1015.01 1015.04 1015.01 1015.03 1015.38 1015.45 1015.83 1015.70 1015.81 1015.73 1016.13 1016.92 1017.26 1017.89 1018.41 1018.75 1019.27 1019.48 1019.58 1019.56 1019.79
1010.61 1011.57 1012.18 1012.42 1012.98 1013.49 1013.51 1013.39 1013.16 1013.14 1013.11 1013.20 1013.68 1014.20 1014.47 1014.32 1014.35 1014.57 1014.57 1014.70 1014.79 1015.04 1015.40 1015.55 1015.56 1015.48 1015.45 1015.57 1015.62 1015.61 1015.67 1016.06 1016.26 1016.46 1017.12 1017.81 1018.23 1018.48 1018.93 1019.41 1019.45 1019.60 1019.72
1010.72 1011.61 1012.15 1012.46 1012.99 1013.46 1013.56 1013.51 1013.25 1013.34 1013.22 1012.98 1013.64 1014.03 1014.40 1014.35 1014.40 1014.46 1014.37 1014.32 1014.66 1015.47 1016.05 1016.10 1015.96 1015.88 1015.66 1015.74 1015.29 1015.81 1015.81 1016.04 1016.28 1016.36 1016.50 1017.00 1017.75 1018.14 1018.30 1018.74 1019.18 1019.46 1019.57
1010.69 1011.56 1012.04 1012.52 1013.05 1013.50 1013.57 1013.68 1013.71 1013.44 1013.15 1013.62 1013.96 1014.36 1014.52 1014.56 1014.52 1014.42 1014.46 1014.87 1014.95 1015.66 1016.10 1016.24 1016.15 1015.95 1015.86 1015.89 1016.05 1016.21 1016.41 1016.31 1016.42 1016.36 1016.26 1016.71 1016.98 1017.18 1017.93 1018.28 1018.57 1018.94 1019.35
1010.36 1011.34 1011.96 1012.50 1013.04 1013.36 1013.45 1013.46 1013.43 1013.27 1013.34 1013.62 1014.11 1014.49 1014.82 1014.86 1015.04 1014.83 1015.06 1015.30 1015.61 1015.99 1016.30 1016.49 1016.57 1016.41 1016.35 1016.54 1016.83 1016.59 1016.71 1016.70 1016.53 1016.58 1016.72 1016.98 1017.27 1017.14 1017.28 1017.60 1017.88 1018.26 1018.55
1009.77 1010.74 1011.59 1012.33 1012.98 1013.23 1013.14 1013.38 1013.27 1013.21 1013.50 1014.10 1014.59 1014.93 1015.06 1014.97 1015.06 1015.21 1015.28 1015.49 1015.81 1016.23 1016.55 1016.69 1016.84 1016.83 1016.86 1016.99 1016.90 1017.15 1017.09 1017.19 1017.22 1017.22 1017.17 1017.40 1017.65 1017.80 1017.81 1017.82 1017.75 1017.78 1017.88
1009.07 1010.32 1011.14 1011.89 1012.73 1013.05 1013.17 1013.27 1013.30 1013.32 1013.69 1013.93 1014.29 1014.81 1015.12 1015.14 1015.02 1015.21 1015.45 1015.67 1015.97 1016.19 1016.66 1016.92 1017.04 1017.24 1017.10 1017.17 1017.14 1017.21 1017.39 1017.45 1017.46 1017.67 1017.57 1017.73 1017.73 1017.69 1017.70 1017.62 1017.47 1017.48 1017.69
1008.55 1009.71 1010.77 1011.55 1012.29 1012.71 1013.00 1013.08 1013.29 1013.41 1013.50 1013.75 1014.25 1014.77 1015.15 1015.24 1015.13 1015.04 1015.40 1015.65 1016.14 1016.60 1016.90 1017.08 1017.20 1017.27 1017.19 1017.26 1017.20 1017.31 1017.36 1017.34 1017.50 1017.76 1017.89 1017.83 1017.74 1017.12 1017.17 1017.21 1017.36 1017.71 1017.88
1007.79 1009.02 1010.24 1011.31 1011.98 1012.54 1012.79 1013.09 1013.35 1013.53 1013.63 1013.68 1014.26 1014.64 1015.05 1015.31 1015.29 1015.14 1015.51 1015.58 1016.02 1016.47 1016.88 1017.17 1017.43 1017.55 1017.59 1017.51 1017.45 1017.35 1017.29 1017.40 1017.56 1017.83 1018.03 1017.71 1017.46 1017.08 1016.68 1016.89 1017.26 1017.36 1017.70
Wind_Speed
11 11 9 9 7 8 10 12 11 12 12 12 12 12 12 11 11 11 12 12 11 13 13 12 12 12 11 10 10 9 8 10 11 12 14 13 12 11 9 8 14 13 13
15 12 9 9 9 11 11 12 11 12 11 12 12 13 13 12 12 14 13 11 13 13 12 12 11 11 10 10 9 8 6 8 9 11 13 13 13 13 15 20 18 12 12
17 12 11 9 12 11 12 12 12 12 12 12 12 13 13 14 13 13 12 14 12 12 11 11 10 10 9 9 7 7 7 5 6 8 9 8 9 13 14 17 15 14 12
15 12 12 12 12 12 12 11 12 11 11 12 12 13 12 13 13 14 12 12 11 11 10 9 9 9 8 7 6 5 3 4 3 6 13 8 5 12 12 14 14 12 13
15 14 12 12 11 12 12 11 11 11 12 12 12 12 12 12 12 12 11 10 9 9 8 8 8 9 8 7 5 3 1 3 2 4 12 8 3 9 11 13 14 13 10
14 16 12 12 12 13 13 11 11 10 11 11 11 11 11 11 10 9 8 8 8 7 8 8 7 8 9 8 6 3 1 2 6 16 9 11 7 8 11 13 13 12 11
16 15 12 12 12 12 12 11 10 10 9 9 9 8 9 9 8 7 6 6 7 6 7 8 10 8 9 7 7 4 3 1 1 11 11 7 6 8 10 11 11 10 9
17 16 12 13 12 12 11 10 9 9 7 7 6 7 7 7 7 6 5 4 4 5 6 9 8 8 8 6 7 4 3 5 9 4 11 7 7 9 9 10 10 8 8
17 14 11 11 10 11 10 8 8 7 7 7 6 6 7 7 7 6 5 3 4 5 7 5 6 7 9 10 9 4 5 6 1 3 12 6 8 9 11 10 8 6 6
13 15 13 10 10 9 9 8 8 8 8 9 9 9 8 8 7 6 4 4 2 4 4 8 11 12 11 12 11 8 6 7 5 10 8 5 9 9 9 7 6 6 4
8 13 12 12 9 9 8 8 8 10 9 5 6 9 7 5 5 9 7 7 5 4 6 7 10 12 14 15 12 9 7 5 2 7 6 8 8 9 9 8 7 6 6
8 13 12 12 11 9 8 8 7 7 5 4 6 5 5 6 8 10 10 9 7 6 2 9 8 11 11 5 5 9 5 4 8 8 5 8 7 8 10 9 10 12 13
13 10 12 11 7 9 5 4 4 3 4 5 10 7 3 3 5 3 3 9 3 5 4 1 7 5 6 3 6 6 7 7 7 7 8 8 7 10 12 12 13 13 13
13 13 13 11 5 6 6 2 3 3 1 1 15 16 7 1 9 4 1 17 5 9 6 2 5 5 10 10 6 4 4 9 7 6 9 11 11 13 13 14 13 12 13
11 10 13 11 6 3 3 7 2 3 4 9 10 8 3 1 1 6 4 2 12 4 2 7 6 3 5 2 7 6 5 9 11 6 4 12 15 15 15 14 13 12 13
11 11 13 8 5 7 2 2 2 4 3 4 5 3 4 5 1 1 7 5 5 6 11 6 9 6 3 7 4 8 1 7 11 11 6 6 13 14 13 15 14 12 12
11 13 11 10 8 8 2 3 3 4 6 8 3 4 3 6 1 4 5 4 4 4 3 3 1 8 5 6 5 9 5 3 9 10 9 8 9 12 12 12 14 13 11
13 14 12 12 12 9 6 6 4 5 5 8 7 5 2 4 5 4 3 4 1 3 4 4 3 3 4 4 2 2 6 4 7 10 9 9 8 8 10 13 13 13 12
12 14 10 8 11 8 6 5 4 2 1 5 7 7 3 3 6 5 4 2 4 5 5 4 2 2 1 3 5 2 4 6 3 8 9 10 12 10 7 12 13 12 12
14 13 9 9 9 8 5 4 2 2 4 3 6 7 4 4 5 5 3 3 5 6 5 3 5 3 1 2 5 5 4 3 4 4 5 10 12 11 10 10 8 8 11
15 14 10 9 9 7 5 5 4 6 3 7 7 7 3 2 2 3 2 6 6 5 5 3 3 4 5 5 2 3 3 3 3 4 3 5 5 5 12 10 8 6 6
16 14 11 8 9 6 6 4 5 3 3 7 6 4 4 2 6 6 6 5 5 3 5 4 4 3 2 5 2 2 2 2 2 5 4 3 6 3 3 5 4 7 9
18 17 14 11 12 8 7 4 1 0 4 8 6 4 4 2 5 5 4 5 4 4 4 2 5 4 2 2 2 2 4 2 2 2 1 5 2 3 4 5 4 4 2
18 17 16 13 14 11 8 5 5 4 5 4 6 6 5 5 2 5 5 5 5 4 5 4 3 3 1 3 2 3 3 2 1 1 1 3 4 4 5 3 1 5 3
18 17 15 14 14 12 9 5 5 4 4 5 7 9 6 4 5 5 5 5 6 5 4 4 4 5 2 2 3 1 1 2 1 1 1 2 3 4 5 5 2 3 5
17 18 16 15 13 12 11 8 7 7 5 4 8 6 6 6 3 3 4 3 7 5 5 4 4 4 3 3 3 2 1 0 1 2 1 3 3 4 4 4 5 4 3
Wind_Direction
119 117 120 107 109 95 90 89 87 84 88 81 88 94 96 93 93 91 89 88 93 86 82 82 83 80 85 90 95 100 105 109 109 109 106 102 86 78 74 112 95 90 87
122 119 116 105 96 93 88 84 88 91 91 94 92 94 92 93 91 94 95 98 89 89 83 81 80 80 83 90 104 113 109 117 120 117 104 95 84 71 70 73 76 77 82
114 125 112 114 106 96 94 95 95 99 96 94 97 95 93 95 97 101 105 97 102 91 90 86 83 79 76 79 93 111 129 133 125 125 140 109 95 86 81 84 88 87 82
124 124 108 114 108 106 102 108 105 101 99 96 90 92 94 93 97 98 101 99 95 96 96 94 95 92 87 85 85 90 107 91 78 107 45 2 94 97 95 91 86 87 94
121 107 112 117 110 109 103 101 102 99 93 94 94 95 95 96 99 97 100 102 98 89 93 99 104 99 103 104 98 87 67 80 264 91 111 242 187 102 100 104 98 84 93
126 106 116 112 116 113 110 109 98 105 102 99 100 105 106 104 102 107 112 114 112 117 119 119 116 110 112 112 115 99 23 351 337 88 61 78 80 105 103 100 100 97 97
113 117 118 112 118 118 112 112 106 106 103 105 110 121 120 120 124 128 132 137 144 149 134 127 108 107 115 116 119 117 113 239 328 93 140 82 87 96 87 90 88 88 90
117 112 128 117 120 117 117 119 115 117 124 125 142 138 134 141 146 154 158 170 156 155 138 133 127 129 128 132 149 152 228 263 106 115 96 96 94 87 86 89 81 75 97
117 128 140 131 127 126 129 130 129 141 146 157 178 166 172 176 176 174 171 173 147 161 153 160 129 130 129 150 154 170 277 302 227 141 107 102 80 77 79 95 86 89 91
143 144 131 137 139 152 155 154 165 185 180 190 194 196 197 198 196 182 157 153 139 147 163 148 134 128 127 140 160 182 223 267 267 95 87 83 78 76 67 89 85 82 82
162 133 130 146 160 148 137 174 191 207 207 225 245 217 203 209 185 146 116 128 144 162 162 135 135 138 147 158 170 179 202 238 183 81 82 83 78 76 76 82 74 69 61
157 140 138 157 145 159 168 154 200 198 179 178 9 274 205 198 205 139 157 155 120 133 258 135 148 145 167 178 186 184 217 157 92 93 92 99 98 92 94 87 80 73 69
158 165 150 136 128 172 111 168 189 239 172 146 172 221 230 131 143 109 117 92 354 30 358 225 163 182 229 198 180 194 209 153 113 104 114 117 108 100 98 94 88 85 86
155 146 147 112 98 194 135 226 109 146 70 105 42 336 0 83 90 130 281 142 108 156 222 266 208 218 214 231 96 249 330 115 117 117 135 142 123 116 107 99 99 93 85
157 143 113 118 166 185 35 182 158 244 164 116 125 249 252 90 272 102 270 21 139 154 208 186 138 318 319 73 170 169 141 121 123 124 133 147 133 127 125 123 112 101 92
151 137 121 151 128 93 121 117 224 170 151 114 111 146 64 209 154 298 183 188 71 131 161 172 152 203 90 285 153 76 322 139 121 134 131 138 132 133 138 131 121 112 106
150 141 146 136 150 111 138 281 271 159 143 99 106 75 18 33 317 329 78 58 134 156 122 117 282 171 195 185 129 158 156 116 145 131 141 140 148 142 143 140 135 136 130
157 131 165 163 141 148 183 232 250 219 148 139 146 144 133 51 332 307 86 94 352 78 110 43 23 358 113 101 168 250 129 114 95 141 153 157 144 158 157 160 156 151 145
145 139 187 147 146 161 172 237 223 339 288 135 135 118 195 38 27 353 93 105 56 68 37 34 350 71 344 148 123 68 130 114 165 158 145 171 161 160 165 175 173 165 162
144 147 194 143 138 141 188 241 111 248 258 118 98 85 344 41 26 14 45 27 64 70 62 21 8 348 324 45 99 56 49 111 146 122 152 166 175 180 158 173 176 184 182
154 157 180 158 144 142 187 188 172 225 168 106 86 87 87 89 8 303 162 53 58 69 47 46 326 3 27 37 16 141 77 128 227 128 62 132 166 151 164 180 182 174 185
159 164 165 161 154 177 201 217 177 195 191 103 104 118 108 84 4 53 8 93 73 114 81 38 5 339 77 41 340 249 175 161 137 77 77 64 42 351 96 160 119 170 179
165 168 170 170 164 204 206 228 58 79 94 107 121 127 145 159 158 108 71 54 20 138 79 48 14 51 37 63 16 35 10 20 129 144 194 83 63 23 10 6 163 153 174
167 171 172 173 166 203 233 195 189 180 150 145 167 144 145 183 184 122 117 103 34 82 132 135 36 345 35 153 123 98 97 129 49 60 146 156 163 196 158 245 137 172 159
170 172 176 173 170 192 210 216 185 255 175 177 125 142 145 153 228 128 115 131 102 102 92 83 66 22 23 358 55 100 159 200 182 90 318 208 218 192 164 184 69 20 144
175 169 175 177 178 191 201 197 203 212 263 171 142 145 157 172 206 139 118 108 103 134 130 114 117 73 50 32 28 334 42 33 60 39 333 313 194 217 167 169 159 198 95